Hourly Weather Kozminskiy

Today, 26 October, Monday

Time Temperature Precipitation Wind Pressure Humidity
00:00 +7°C° 0 mm 2 mps 746 mmHg 87%
01:00 +6°C° 0 mm 2 mps 747 mmHg 88%
02:00 +6°C° 0 mm 2 mps 747 mmHg 88%
03:00 +6°C° 0 mm 2 mps 747 mmHg 89%
04:00 +6°C° 0 mm 2 mps 748 mmHg 90%
05:00 +6°C° 0 mm 2 mps 748 mmHg 90%
06:00 +6°C° 0 mm 2 mps 748 mmHg 91%
07:00 +6°C° 0 mm 2 mps 748 mmHg 89%
08:00 +6°C° 0 mm 2 mps 748 mmHg 87%
09:00 +7°C° 0 mm 2 mps 749 mmHg 84%
10:00 +8°C° 0 mm 2 mps 749 mmHg 79%
11:00 +9°C° 0 mm 2 mps 749 mmHg 73%
12:00 +12°C° 0 mm 2 mps 749 mmHg 68%
13:00 +12°C° 0 mm 2 mps 749 mmHg 66%
14:00 +12°C° 0 mm 1 mps 749 mmHg 65%
15:00 +12°C° 0 mm 1 mps 750 mmHg 64%
16:00 +11°C° 0 mm 1 mps 750 mmHg 68%
17:00 +11°C° 0 mm 1 mps 750 mmHg 72%
18:00 +10°C° 0 mm 1 mps 750 mmHg 76%
19:00 +9°C° 0 mm 1 mps 750 mmHg 78%
20:00 +9°C° 0 mm 1 mps 750 mmHg 80%
21:00 +7°C° 0 mm 2 mps 751 mmHg 82%
22:00 +7°C° 0 mm 2 mps 751 mmHg 83%
23:00 +7°C° 0 mm 2 mps 751 mmHg 84%

Tomorrow, 27 October, Tuesday

Time Temperature Precipitation Wind Pressure Humidity
00:00 +6°C° 0 mm 2 mps 751 mmHg 85%
01:00 +6°C° 0 mm 2 mps 751 mmHg 87%
02:00 +6°C° 0 mm 2 mps 751 mmHg 88%
03:00 +6°C° 0 mm 2 mps 751 mmHg 89%
04:00 +5°C° 0 mm 2 mps 751 mmHg 90%
05:00 +5°C° 0 mm 2 mps 752 mmHg 91%
06:00 +5°C° 0 mm 2 mps 752 mmHg 92%
07:00 +5°C° 0 mm 2 mps 752 mmHg 91%
08:00 +5°C° 0 mm 3 mps 752 mmHg 90%
09:00 +5°C° 0 mm 3 mps 752 mmHg 89%
10:00 +7°C° 0 mm 3 mps 752 mmHg 84%
11:00 +8°C° 0 mm 3 mps 753 mmHg 79%
12:00 +9°C° 0 mm 3 mps 753 mmHg 75%
13:00 +10°C° 0 mm 3 mps 753 mmHg 73%
14:00 +10°C° 0 mm 3 mps 753 mmHg 71%
15:00 +11°C° 0 mm 3 mps 752 mmHg 69%
16:00 +10°C° 0 mm 3 mps 752 mmHg 74%
17:00 +9°C° 0 mm 3 mps 753 mmHg 79%
18:00 +8°C° 0 mm 3 mps 753 mmHg 83%
19:00 +7°C° 0 mm 3 mps 753 mmHg 85%
20:00 +7°C° 0 mm 3 mps 753 mmHg 86%
21:00 +7°C° 0 mm 3 mps 753 mmHg 88%
22:00 +5°C° 0 mm 3 mps 753 mmHg 88%
23:00 +5°C° 0 mm 3 mps 753 mmHg 88%

Day after tomorrow, 28 October, Wednesday

Time Temperature Precipitation Wind Pressure Humidity
00:00 +5°C° 0 mm 3 mps 753 mmHg 88%
01:00 +5°C° 0 mm 3 mps 753 mmHg 88%
02:00 +4°C° 0 mm 3 mps 753 mmHg 88%
03:00 +4°C° 0 mm 3 mps 753 mmHg 88%
04:00 +4°C° 0 mm 3 mps 753 mmHg 87%
05:00 +3°C° 0 mm 3 mps 753 mmHg 86%
06:00 +3°C° 0 mm 3 mps 753 mmHg 85%
07:00 +4°C° 0 mm 4 mps 753 mmHg 82%
08:00 +4°C° 0 mm 4 mps 753 mmHg 78%
09:00 +4°C° 0 mm 4 mps 753 mmHg 75%
10:00 +5°C° 0 mm 5 mps 753 mmHg 70%
11:00 +6°C° 0 mm 5 mps 753 mmHg 65%
12:00 +8°C° 0 mm 5 mps 753 mmHg 61%
13:00 +8°C° 0 mm 5 mps 753 mmHg 59%
14:00 +8°C° 0 mm 5 mps 753 mmHg 58%
15:00 +8°C° 0 mm 4 mps 753 mmHg 57%
16:00 +7°C° 0 mm 4 mps 753 mmHg 60%
17:00 +6°C° 0 mm 4 mps 753 mmHg 63%
18:00 +5°C° 0 mm 4 mps 753 mmHg 67%
19:00 +5°C° 0 mm 4 mps 753 mmHg 63%
20:00 +4°C° 0 mm 4 mps 753 mmHg 60%
21:00 +4°C° 0 mm 4 mps 753 mmHg 57%
22:00 +3°C° 0 mm 4 mps 753 mmHg 55%
23:00 +3°C° 0 mm 4 mps 753 mmHg 53%

29 October, Thursday

Time Temperature Precipitation Wind Pressure Humidity
00:00 +1°C° 0 mm 4 mps 753 mmHg 51%
01:00 +1°C° 0 mm 4 mps 753 mmHg 52%
02:00 +1°C° 0 mm 4 mps 753 mmHg 53%
03:00 +1°C° 0 mm 3 mps 752 mmHg 54%
04:00 0°C° 0 mm 4 mps 752 mmHg 56%
05:00 -1°C° 0 mm 4 mps 752 mmHg 58%
06:00 -1°C° 0 mm 4 mps 752 mmHg 60%
07:00 -1°C° 0 mm 4 mps 752 mmHg 60%
08:00 0°C° 0 mm 4 mps 752 mmHg 61%
09:00 0°C° 0 mm 4 mps 752 mmHg 62%
10:00 +1°C° 0 mm 5 mps 752 mmHg 59%
11:00 +3°C° 0 mm 5 mps 752 mmHg 56%
12:00 +5°C° 0 mm 5 mps 752 mmHg 53%
13:00 +5°C° 0 mm 5 mps 751 mmHg 52%
14:00 +6°C° 0 mm 5 mps 751 mmHg 51%
15:00 +6°C° 0 mm 5 mps 750 mmHg 50%
16:00 +6°C° 0 mm 4 mps 750 mmHg 52%
17:00 +5°C° 0 mm 4 mps 750 mmHg 55%
18:00 +5°C° 0 mm 3 mps 750 mmHg 57%
19:00 +4°C° 0 mm 3 mps 750 mmHg 57%
20:00 +4°C° 0 mm 3 mps 750 mmHg 57%
21:00 +4°C° 0 mm 3 mps 750 mmHg 57%
22:00 +4°C° 0 mm 3 mps 750 mmHg 57%
23:00 +4°C° 0 mm 3 mps 749 mmHg 58%

30 October, Friday

Time Temperature Precipitation Wind Pressure Humidity
00:00 +4°C° 0 mm 3 mps 749 mmHg 58%
01:00 +3°C° 0 mm 3 mps 749 mmHg 59%
02:00 +3°C° 0 mm 3 mps 749 mmHg 60%
03:00 +3°C° 0 mm 3 mps 749 mmHg 61%
04:00 +3°C° 0 mm 3 mps 749 mmHg 63%
05:00 +3°C° 0 mm 3 mps 748 mmHg 65%
06:00 +2°C° 0 mm 3 mps 748 mmHg 67%
07:00 +3°C° 0 mm 3 mps 748 mmHg 67%
08:00 +3°C° 0 mm 3 mps 748 mmHg 67%
09:00 +3°C° 0 mm 3 mps 748 mmHg 66%
10:00 +5°C° 0 mm 3 mps 748 mmHg 63%
11:00 +7°C° 0 mm 3 mps 748 mmHg 60%
12:00 +8°C° 0 mm 2 mps 748 mmHg 57%
13:00 +8°C° 0 mm 2 mps 748 mmHg 57%
14:00 +9°C° 0 mm 2 mps 748 mmHg 58%
15:00 +9°C° 0 mm 2 mps 748 mmHg 58%
16:00 +8°C° 0 mm 2 mps 748 mmHg 63%
17:00 +7°C° 0 mm 2 mps 748 mmHg 67%
18:00 +7°C° 0 mm 2 mps 748 mmHg 72%
19:00 +6°C° 0 mm 2 mps 748 mmHg 75%
20:00 +7°C° 0 mm 1 mps 748 mmHg 77%
21:00 +7°C° 0 mm 1 mps 748 mmHg 79%
22:00 +6°C° 0 mm 1 mps 748 mmHg 81%
23:00 +6°C° 0 mm 1 mps 748 mmHg 83%

31 October, Saturday

Time Temperature Precipitation Wind Pressure Humidity
00:00 +6°C° 0 mm 1 mps 748 mmHg 84%
01:00 +6°C° 0 mm 1 mps 748 mmHg 85%
02:00 +5°C° 0 mm 1 mps 748 mmHg 87%
03:00 +5°C° 0 mm 1 mps 748 mmHg 88%
04:00 +5°C° 0 mm 1 mps 748 mmHg 88%
05:00 +5°C° 0 mm 1 mps 748 mmHg 89%
06:00 +5°C° 0 mm 1 mps 748 mmHg 89%
07:00 +5°C° 0 mm 1 mps 748 mmHg 88%
08:00 +4°C° 0 mm 2 mps 748 mmHg 87%
09:00 +5°C° 0 mm 2 mps 748 mmHg 85%
Show more